| time (UTC) | temp F | wind direction | speed MPH | gust MPH | rain 1hr in | rain 24hr in | rain mn in | humidity % | barometer mb |
| 20260510034505 | 64 | 104 | 16.0 | 22.0 | 0.47 | 0.54 | 0.54 | 95 | 1009.6 |
| 20260510033010 | 64 | 72 | 17.0 | 23.0 | 0.52 | 0.54 | 0.54 | 95 | 1010.1 |
| 20260510031518 | 63 | 90 | 17.0 | 30.0 | 0.52 | 0.54 | 0.54 | 94 | 1010.7 |
| 20260510030020 | 64 | 63 | 23.0 | 35.0 | 0.11 | 0.12 | 0.12 | 93 | 1010.4 |
| 20260510024502 | 65 | 53 | 27.0 | 35.0 | 0.06 | 0.07 | 0.07 | 92 | 1009.1 |
| 20260510023008 | 76 | 15 | 26.0 | 38.0 | 0.00 | 0.01 | 0.01 | 62 | 1009.6 |
| 20260510021527 | 74 | 1 | 1.0 | 7.0 | 0.00 | 0.01 | 0.01 | 69 | 1007.8 |
| 20260510020018 | 74 | 101 | 5.0 | 7.0 | 0.00 | 0.04 | 0.01 | 68 | 1007.0 |
| 20260510014523 | 74 | 118 | 6.0 | 8.0 | 0.00 | 0.08 | 0.01 | 68 | 1007.1 |
| 20260510013004 | 76 | 106 | 3.0 | 6.0 | 0.00 | 0.77 | 0.01 | 64 | 1007.2 |
| 20260510011509 | 77 | 111 | 5.0 | 8.0 | 0.00 | 0.84 | 0.01 | 62 | 1006.7 |
| 20260510010014 | 78 | 105 | 5.0 | 6.0 | 0.00 | 0.84 | 0.01 | 60 | 1006.7 |
| 20260510004527 | 79 | 121 | 5.0 | 8.0 | 0.00 | 0.84 | 0.01 | 57 | 1006.8 |
| 20260510003026 | 80 | 111 | 7.0 | 11.0 | 0.00 | 0.84 | 0.01 | 54 | 1006.7 |
| 20260510001510 | 82 | 124 | 9.0 | 13.0 | 0.00 | 0.84 | 0.01 | 49 | 1006.7 |
| 20260510000010 | 83 | 110 | 11.0 | 15.0 | 0.00 | 0.84 | 0.01 | 45 | 1006.9 |
| 20260509234518 | 83 | 120 | 9.0 | 17.0 | 0.00 | 0.84 | 0.01 | 49 | 1006.7 |
| 20260509233018 | 84 | 139 | 11.0 | 16.0 | 0.00 | 0.84 | 0.01 | 46 | 1006.8 |
| 20260509231526 | 84 | 119 | 10.0 | 16.0 | 0.00 | 0.84 | 0.01 | 47 | 1006.9 |
| 20260509230010 | 84 | 112 | 12.0 | 16.0 | 0.00 | 0.84 | 0.01 | 47 | 1007.3 |
| 20260509224516 | 85 | 101 | 9.0 | 15.0 | 0.00 | 0.84 | 0.01 | 47 | 1007.5 |
| 20260509223018 | 84 | 129 | 8.0 | 12.0 | 0.00 | 0.84 | 0.01 | 48 | 1007.8 |
| 20260509221524 | 84 | 112 | 7.0 | 13.0 | 0.00 | 0.84 | 0.01 | 45 | 1007.9 |
| 20260509220027 | 84 | 128 | 9.0 | 16.0 | 0.00 | 0.84 | 0.01 | 48 | 1007.9 |
| 20260509214514 | 84 | 114 | 8.0 | 14.0 | 0.00 | 0.84 | 0.01 | 49 | 1008.0 |
| 20260509213026 | 84 | 131 | 5.0 | 11.0 | 0.00 | 0.84 | 0.01 | 50 | 1008.1 |
| 20260509211520 | 84 | 117 | 7.0 | 13.0 | 0.00 | 0.84 | 0.01 | 49 | 1008.5 |
| 20260509210024 | 84 | 108 | 6.0 | 12.0 | 0.00 | 0.84 | 0.01 | 51 | 1008.6 |
| 20260509204526 | 83 | 120 | 5.0 | 11.0 | 0.00 | 0.84 | 0.01 | 49 | 1008.9 |
| 20260509203017 | 83 | 131 | 7.0 | 12.0 | 0.00 | 0.84 | 0.01 | 52 | 1008.9 |
| 20260509201517 | 82 | 115 | 8.0 | 11.0 | 0.00 | 0.84 | 0.01 | 64 | 1009.1 |
| 20260509200025 | 82 | 104 | 6.0 | 11.0 | 0.00 | 0.84 | 0.01 | 64 | 1009.3 |
| 20260509194530 | 81 | 63 | 2.0 | 9.0 | 0.00 | 0.84 | 0.01 | 67 | 1009.4 |
| 20260509193030 | 81 | 134 | 6.0 | 10.0 | 0.00 | 0.84 | 0.01 | 65 | 1009.6 |
| 20260509191532 | 80 | 143 | 5.0 | 0.0 | 0.00 | 0.84 | 0.01 | 69 | 1010.0 |
| 20260509190023 | 78 | 153 | 4.0 | 8.0 | 0.00 | 0.84 | 0.01 | 73 | 1010.3 |
| 20260509184535 | 77 | 64 | 4.0 | 10.0 | 0.00 | 0.84 | 0.01 | 78 | 1010.4 |
| 20260509183031 | 77 | 126 | 4.0 | 7.0 | 0.00 | 0.84 | 0.01 | 78 | 1010.7 |
| 20260509181513 | 76 | 109 | 2.0 | 9.0 | 0.00 | 0.84 | 0.01 | 81 | 1010.8 |
| 20260509180019 | 75 | 114 | 3.0 | 8.0 | 0.00 | 0.84 | 0.01 | 80 | 1011.1 |
| 20260509174524 | 75 | 212 | 5.0 | 10.0 | 0.00 | 0.84 | 0.01 | 83 | 1011.3 |
| 20260509173005 | 75 | 115 | 5.0 | 9.0 | 0.00 | 0.84 | 0.01 | 83 | 1011.6 |
| 20260509171509 | 74 | 120 | 3.0 | 8.0 | 0.00 | 0.84 | 0.01 | 83 | 1011.9 |
| 20260509170022 | 73 | 110 | 6.0 | 10.0 | 0.00 | 0.84 | 0.01 | 85 | 1012.1 |
| 20260509164522 | 73 | 112 | 4.0 | 8.0 | 0.00 | 0.84 | 0.01 | 85 | 1012.2 |
| 20260509163008 | 73 | 127 | 2.0 | 5.0 | 0.00 | 0.84 | 0.01 | 85 | 1012.3 |
| 20260509161511 | 72 | 113 | 2.0 | 6.0 | 0.00 | 0.84 | 0.01 | 88 | 1012.3 |
| 20260509160012 | 71 | 135 | 3.0 | 5.0 | 0.00 | 0.84 | 0.01 | 88 | 1012.3 |
| 20260509154518 | 71 | 202 | 4.0 | 7.0 | 0.00 | 0.84 | 0.01 | 88 | 1012.3 |
| 20260509153031 | 70 | 239 | 2.0 | 7.0 | 0.00 | 0.84 | 0.01 | 89 | 1012.5 |
| 20260509151505 | 70 | 189 | 2.0 | 6.0 | 0.00 | 0.84 | 0.01 | 90 | 1012.4 |
| 20260509150011 | 69 | 142 | 3.0 | 5.0 | 0.00 | 0.84 | 0.01 | 91 | 1012.4 |
| 20260509144519 | 67 | 236 | 2.0 | 4.0 | 0.00 | 0.84 | 0.01 | 93 | 1012.3 |
| 20260509143018 | 67 | 140 | 3.0 | 5.0 | 0.00 | 0.84 | 0.01 | 95 | 1012.3 |
| 20260509141524 | 65 | 245 | 2.0 | 4.0 | 0.00 | 0.84 | 0.01 | 96 | 1012.3 |
| 20260509140012 | 64 | 243 | 2.0 | 5.0 | 0.00 | 0.84 | 0.01 | 96 | 1012.4 |
| 20260509134513 | 63 | 226 | 2.0 | 3.0 | 0.00 | 0.84 | 0.01 | 96 | 1012.4 |
| 20260509133017 | 62 | 288 | 2.0 | 4.0 | 0.00 | 0.84 | 0.01 | 96 | 1012.3 |
| 20260509131520 | 60 | 233 | 3.0 | 6.0 | 0.00 | 0.84 | 0.01 | 96 | 1012.1 |
| 20260509130036 | 60 | 227 | 3.0 | 4.0 | 0.00 | 0.84 | 0.01 | 96 | 1011.9 |
| 20260509124511 | 59 | 277 | 2.0 | 3.0 | 0.00 | 0.84 | 0.01 | 96 | 1011.4 |
| 20260509123017 | 57 | 295 | 2.0 | 2.0 | 0.00 | 0.84 | 0.01 | 96 | 1011.1 |
| 20260509121525 | 57 | 307 | 3.0 | 3.0 | 0.00 | 0.84 | 0.01 | 96 | 1010.8 |
| 20260509120024 | 58 | 3 | 1.0 | 1.0 | 0.00 | 0.84 | 0.01 | 96 | 1010.7 |
| 20260509114526 | 57 | 20 | 0.0 | 0.0 | 0.00 | 0.84 | 0.01 | 96 | 1010.4 |
| 20260509113014 | 58 | 20 | 0.0 | 0.0 | 0.00 | 0.84 | 0.01 | 96 | 1010.3 |
| 20260509111517 | 58 | 21 | 0.0 | 2.0 | 0.01 | 0.84 | 0.01 | 96 | 1010.2 |
| 20260509110023 | 58 | 32 | 1.0 | 4.0 | 0.01 | 0.84 | 0.01 | 96 | 1010.2 |
| 20260509104526 | 58 | 37 | 1.0 | 2.0 | 0.01 | 0.84 | 0.01 | 96 | 1009.9 |
| 20260509103029 | 58 | 39 | 1.0 | 5.0 | 0.01 | 0.84 | 0.01 | 96 | 1009.9 |
| 20260509101523 | 58 | 20 | 2.0 | 5.0 | 0.00 | 0.83 | 0.00 | 96 | 1009.6 |
| 20260509100024 | 59 | 51 | 6.0 | 9.0 | 0.00 | 0.83 | 0.00 | 96 | 1009.7 |
| 20260509094525 | 58 | 27 | 3.0 | 5.0 | 0.00 | 0.83 | 0.00 | 96 | 1009.8 |
| 20260509093026 | 58 | 32 | 3.0 | 5.0 | 0.00 | 0.83 | 0.00 | 96 | 1010.1 |
| 20260509091512 | 57 | 34 | 2.0 | 5.0 | 0.00 | 0.83 | 0.00 | 96 | 1010.0 |
| 20260509090017 | 58 | 35 | 3.0 | 4.0 | 0.00 | 0.83 | 0.00 | 96 | 1010.3 |
| 20260509084503 | 58 | 51 | 3.0 | 5.0 | 0.00 | 0.83 | 0.00 | 96 | 1010.6 |
| 20260509083010 | 58 | 47 | 3.0 | 8.0 | 0.00 | 0.83 | 0.00 | 96 | 1010.6 |
| 20260509081511 | 58 | 79 | 0.0 | 2.0 | 0.00 | 0.83 | 0.00 | 96 | 1010.7 |
| 20260509080012 | 58 | 132 | 0.0 | 4.0 | 0.00 | 0.83 | 0.00 | 96 | 1010.4 |
| 20260509074516 | 59 | 349 | 0.0 | 2.0 | 0.00 | 0.83 | 0.00 | 96 | 1010.3 |
| 20260509073005 | 59 | 35 | 2.0 | 3.0 | 0.00 | 0.83 | 0.00 | 96 | 1010.6 |
| 20260509071504 | 60 | 117 | 2.0 | 5.0 | 0.00 | 0.83 | 0.00 | 96 | 1010.7 |
| 20260509070008 | 60 | 324 | 2.0 | 5.0 | 0.00 | 0.83 | 0.00 | 96 | 1010.5 |
| 20260509064514 | 60 | 304 | 3.0 | 6.0 | 0.00 | 0.83 | 0.00 | 96 | 1010.7 |
| 20260509063021 | 60 | 329 | 4.0 | 5.0 | 0.00 | 0.83 | 0.00 | 96 | 1010.6 |
| 20260509061505 | 60 | 323 | 4.0 | 5.0 | 0.00 | 0.83 | 0.00 | 96 | 1010.9 |
| 20260509060007 | 60 | 304 | 4.0 | 7.0 | 0.00 | 0.83 | 0.00 | 96 | 1010.7 |
| 20260509054514 | 60 | 286 | 4.0 | 6.0 | 0.00 | 0.83 | 0.00 | 96 | 1010.7 |
| 20260509053019 | 60 | 253 | 4.0 | 6.0 | 0.00 | 0.83 | 0.00 | 96 | 1011.1 |
| 20260509051519 | 60 | 271 | 3.0 | 4.0 | 0.00 | 0.83 | 0.00 | 96 | 1011.0 |
| 20260509050012 | 60 | 222 | 3.0 | 6.0 | 0.00 | 0.83 | 0.00 | 96 | 1010.8 |
| 20260509044508 | 60 | 143 | 3.0 | 8.0 | 0.00 | 0.83 | 0.83 | 96 | 1010.5 |
| 20260509043016 | 59 | 142 | 2.0 | 6.0 | 0.00 | 0.83 | 0.83 | 96 | 1010.3 |
| 20260509041519 | 59 | 122 | 5.0 | 8.0 | 0.00 | 0.83 | 0.83 | 95 | 1009.8 |
| 20260509040028 | 60 | 114 | 4.0 | 6.0 | 0.00 | 0.83 | 0.83 | 95 | 1010.1 |